| time (UTC) | temp F | wind direction | speed MPH | gust MPH | rain 1hr in | rain 24hr in | rain mn in | humidity % | barometer mb |
| 20260901134401 | 73 | 341 | 5.0 | 7.0 | 0.00 | 0.00 | 0.00 | 54 | 1020.0 |
| 20260901133901 | 72 | 327 | 10.0 | 12.0 | 0.00 | 0.00 | 0.00 | 56 | 1020.0 |
| 20260901133401 | 72 | 265 | 3.0 | 5.0 | 0.00 | 0.00 | 0.00 | 56 | 1020.0 |
| 20260901132901 | 72 | 275 | 5.0 | 6.0 | 0.00 | 0.00 | 0.00 | 57 | 1020.0 |
| 20260901132401 | 71 | 328 | 5.0 | 7.0 | 0.00 | 0.00 | 0.00 | 57 | 1020.0 |
| 20260901131901 | 71 | 319 | 10.0 | 13.0 | 0.00 | 0.00 | 0.00 | 55 | 1020.0 |
| 20260901131401 | 71 | 317 | 12.0 | 22.0 | 0.00 | 0.00 | 0.00 | 56 | 1020.0 |
| 20260901130901 | 71 | 312 | 11.0 | 21.0 | 0.00 | 0.00 | 0.00 | 55 | 1020.0 |
| 20260901130401 | 71 | 329 | 12.0 | 16.0 | 0.00 | 0.00 | 0.00 | 55 | 1020.0 |
| 20260901125902 | 71 | 290 | 6.0 | 7.0 | 0.00 | 0.00 | 0.00 | 56 | 1020.0 |
| 20260901125401 | 72 | 319 | 0.0 | 1.0 | 0.00 | 0.00 | 0.00 | 57 | 1020.0 |
| 20260901124901 | 71 | 311 | 7.0 | 12.0 | 0.00 | 0.00 | 0.00 | 56 | 1020.0 |
| 20260901124401 | 71 | 304 | 3.0 | 3.0 | 0.00 | 0.00 | 0.00 | 56 | 1020.0 |
| 20260901123901 | 72 | 310 | 5.0 | 5.0 | 0.00 | 0.00 | 0.00 | 57 | 1020.0 |
| 20260901123401 | 71 | 331 | 3.0 | 4.0 | 0.00 | 0.00 | 0.00 | 56 | 1020.0 |
| 20260901122901 | 71 | 337 | 7.0 | 12.0 | 0.00 | 0.00 | 0.00 | 54 | 1020.0 |
| 20260901122401 | 71 | 298 | 9.0 | 16.0 | 0.00 | 0.00 | 0.00 | 55 | 1020.0 |
| 20260901121901 | 71 | 284 | 10.0 | 12.0 | 0.00 | 0.00 | 0.00 | 56 | 1020.0 |
| 20260901121401 | 72 | 300 | 6.0 | 9.0 | 0.00 | 0.00 | 0.00 | 56 | 1020.0 |
| 20260901120901 | 71 | 299 | 5.0 | 6.0 | 0.00 | 0.00 | 0.00 | 58 | 1020.0 |
| 20260901120401 | 71 | 283 | 3.0 | 6.0 | 0.00 | 0.00 | 0.00 | 57 | 1020.0 |
| 20260901115901 | 71 | 347 | 10.0 | 13.0 | 0.00 | 0.00 | 0.00 | 54 | 1020.0 |
| 20260901115401 | 73 | 338 | 6.0 | 6.0 | 0.00 | 0.00 | 0.00 | 53 | 1020.0 |
| 20260901114901 | 74 | 285 | 6.0 | 10.0 | 0.00 | 0.00 | 0.00 | 54 | 1020.0 |
| 20260901114401 | 74 | 181 | 4.0 | 10.0 | 0.00 | 0.00 | 0.00 | 53 | 1020.0 |
| 20260901113902 | 71 | 345 | 15.0 | 15.0 | 0.00 | 0.00 | 0.00 | 54 | 1020.0 |
| 20260901113401 | 71 | 318 | 9.0 | 13.0 | 0.00 | 0.00 | 0.00 | 58 | 1020.0 |
| 20260901112901 | 71 | 293 | 4.0 | 6.0 | 0.00 | 0.00 | 0.00 | 60 | 1020.0 |
| 20260901112401 | 71 | 299 | 4.0 | 5.0 | 0.00 | 0.00 | 0.00 | 58 | 1020.0 |
| 20260901111901 | 71 | 300 | 6.0 | 7.0 | 0.00 | 0.00 | 0.00 | 57 | 1020.0 |
| 20260901111401 | 71 | 304 | 3.0 | 3.0 | 0.00 | 0.00 | 0.00 | 57 | 1020.0 |
| 20260901110901 | 71 | 286 | 6.0 | 8.0 | 0.00 | 0.00 | 0.00 | 57 | 1020.0 |
| 20260901110401 | 70 | 301 | 8.0 | 11.0 | 0.00 | 0.00 | 0.00 | 58 | 1020.0 |
| 20260901105901 | 71 | 286 | 11.0 | 12.0 | 0.00 | 0.00 | 0.00 | 58 | 1020.0 |
| 20260901105401 | 71 | 301 | 7.0 | 9.0 | 0.00 | 0.00 | 0.00 | 56 | 1020.0 |
| 20260901104901 | 74 | 242 | 10.0 | 10.0 | 0.00 | 0.00 | 0.00 | 54 | 1020.0 |
| 20260901104401 | 72 | 315 | 4.0 | 9.0 | 0.00 | 0.00 | 0.00 | 56 | 1020.0 |
| 20260901103901 | 71 | 304 | 9.0 | 17.0 | 0.00 | 0.00 | 0.00 | 57 | 1020.0 |
| 20260901103401 | 71 | 336 | 3.0 | 8.0 | 0.00 | 0.00 | 0.00 | 59 | 1020.0 |
| 20260901102901 | 71 | 348 | 13.0 | 17.0 | 0.00 | 0.00 | 0.00 | 56 | 1020.0 |
| 20260901102401 | 71 | 317 | 8.0 | 12.0 | 0.00 | 0.00 | 0.00 | 56 | 1019.6 |
| 20260901101901 | 69 | 350 | 9.0 | 10.0 | 0.00 | 0.00 | 0.00 | 58 | 1019.6 |
| 20260901101401 | 70 | 298 | 8.0 | 9.0 | 0.00 | 0.00 | 0.00 | 58 | 1019.6 |
| 20260901100901 | 71 | 307 | 6.0 | 7.0 | 0.00 | 0.00 | 0.00 | 58 | 1019.6 |
| 20260901100401 | 72 | 315 | 11.0 | 21.0 | 0.00 | 0.00 | 0.00 | 55 | 1019.6 |
| 20260901095901 | 72 | 281 | 7.0 | 10.0 | 0.00 | 0.00 | 0.00 | 57 | 1019.6 |
| 20260901095401 | 71 | 337 | 8.0 | 10.0 | 0.00 | 0.00 | 0.00 | 59 | 1019.6 |
| 20260901094901 | 72 | 262 | 8.0 | 11.0 | 0.00 | 0.00 | 0.00 | 57 | 1019.6 |
| 20260901094401 | 72 | 270 | 10.0 | 12.0 | 0.00 | 0.00 | 0.00 | 56 | 1019.6 |
| 20260901093901 | 71 | 297 | 5.0 | 6.0 | 0.00 | 0.00 | 0.00 | 60 | 1019.3 |
| 20260901093401 | 73 | 328 | 7.0 | 12.0 | 0.00 | 0.00 | 0.00 | 55 | 1019.3 |
| 20260901092901 | 72 | 340 | 11.0 | 13.0 | 0.00 | 0.00 | 0.00 | 57 | 1019.3 |
| 20260901092401 | 71 | 310 | 11.0 | 15.0 | 0.00 | 0.00 | 0.00 | 58 | 1019.6 |
| 20260901091901 | 71 | 298 | 8.0 | 8.0 | 0.00 | 0.00 | 0.00 | 59 | 1019.6 |
| 20260901091401 | 68 | 311 | 13.0 | 13.0 | 0.00 | 0.00 | 0.00 | 62 | 1019.3 |
| 20260901090901 | 68 | 313 | 7.0 | 10.0 | 0.00 | 0.00 | 0.00 | 63 | 1019.3 |
| 20260901090401 | 69 | 287 | 2.0 | 3.0 | 0.00 | 0.00 | 0.00 | 64 | 1019.3 |
| 20260901085901 | 69 | 347 | 3.0 | 4.0 | 0.00 | 0.00 | 0.00 | 65 | 1019.3 |
| 20260901085401 | 69 | 348 | 4.0 | 8.0 | 0.00 | 0.00 | 0.00 | 62 | 1019.3 |
| 20260901084901 | 69 | 308 | 10.0 | 16.0 | 0.00 | 0.00 | 0.00 | 62 | 1019.3 |
| 20260901084401 | 69 | 328 | 4.0 | 6.0 | 0.00 | 0.00 | 0.00 | 62 | 1019.3 |
| 20260901083901 | 69 | 340 | 8.0 | 12.0 | 0.00 | 0.00 | 0.00 | 62 | 1019.3 |
| 20260901083401 | 71 | 314 | 9.0 | 10.0 | 0.00 | 0.00 | 0.00 | 58 | 1019.3 |
| 20260901082901 | 71 | 321 | 6.0 | 8.0 | 0.00 | 0.00 | 0.00 | 59 | 1019.3 |
| 20260901082401 | 72 | 299 | 11.0 | 11.0 | 0.00 | 0.00 | 0.00 | 57 | 1019.3 |
| 20260901081901 | 72 | 347 | 5.0 | 7.0 | 0.00 | 0.00 | 0.00 | 59 | 1019.3 |
| 20260901081401 | 71 | 344 | 3.0 | 6.0 | 0.00 | 0.00 | 0.00 | 61 | 1019.0 |
| 20260901080901 | 70 | 328 | 8.0 | 13.0 | 0.00 | 0.00 | 0.00 | 61 | 1019.0 |
| 20260901080401 | 71 | 316 | 8.0 | 12.0 | 0.00 | 0.00 | 0.00 | 60 | 1019.0 |
| 20260901075901 | 70 | 283 | 9.0 | 17.0 | 0.00 | 0.00 | 0.00 | 61 | 1019.0 |
| 20260901075401 | 70 | 341 | 9.0 | 12.0 | 0.00 | 0.00 | 0.00 | 64 | 1019.0 |
| 20260901074901 | 69 | 303 | 13.0 | 16.0 | 0.00 | 0.00 | 0.00 | 63 | 1019.0 |
| 20260901074401 | 69 | 301 | 5.0 | 14.0 | 0.00 | 0.00 | 0.00 | 65 | 1019.0 |
| 20260901073901 | 69 | 324 | 15.0 | 21.0 | 0.00 | 0.00 | 0.00 | 63 | 1018.3 |
| 20260901073401 | 69 | 326 | 12.0 | 19.0 | 0.00 | 0.00 | 0.00 | 64 | 1018.3 |
| 20260901072901 | 69 | 279 | 6.0 | 6.0 | 0.00 | 0.00 | 0.00 | 64 | 1018.3 |
| 20260901072401 | 69 | 346 | 6.0 | 11.0 | 0.00 | 0.00 | 0.00 | 66 | 1018.0 |
| 20260901071901 | 69 | 307 | 7.0 | 12.0 | 0.00 | 0.00 | 0.00 | 67 | 1018.0 |
| 20260901071401 | 69 | 318 | 7.0 | 9.0 | 0.00 | 0.00 | 0.00 | 67 | 1018.3 |
| 20260901070901 | 68 | 311 | 7.0 | 11.0 | 0.00 | 0.00 | 0.00 | 67 | 1018.3 |
| 20260901070401 | 68 | 312 | 6.0 | 13.0 | 0.00 | 0.00 | 0.00 | 68 | 1018.3 |
| 20260901065901 | 68 | 338 | 13.0 | 16.0 | 0.00 | 0.00 | 0.00 | 67 | 1018.3 |
| 20260901065401 | 68 | 292 | 12.0 | 16.0 | 0.00 | 0.00 | 0.00 | 68 | 1018.3 |
| 20260901064901 | 68 | 292 | 9.0 | 10.0 | 0.00 | 0.00 | 0.00 | 68 | 1018.0 |
| 20260901064401 | 68 | 333 | 7.0 | 7.0 | 0.00 | 0.00 | 0.00 | 70 | 1018.0 |
| 20260901063901 | 67 | 323 | 9.0 | 10.0 | 0.00 | 0.00 | 0.00 | 70 | 1018.0 |
| 20260901063401 | 67 | 324 | 4.0 | 6.0 | 0.00 | 0.00 | 0.00 | 73 | 1018.0 |
| 20260901062901 | 67 | 316 | 6.0 | 10.0 | 0.00 | 0.00 | 0.00 | 74 | 1018.0 |
| 20260901062401 | 67 | 312 | 6.0 | 6.0 | 0.00 | 0.00 | 0.00 | 74 | 1018.0 |
| 20260901061901 | 67 | 319 | 4.0 | 6.0 | 0.00 | 0.00 | 0.00 | 77 | 1018.0 |
| 20260901061401 | 66 | 332 | 10.0 | 11.0 | 0.00 | 0.00 | 0.00 | 75 | 1018.0 |
| 20260901060901 | 65 | 296 | 7.0 | 14.0 | 0.00 | 0.00 | 0.00 | 78 | 1018.0 |
| 20260901060401 | 65 | 340 | 6.0 | 8.0 | 0.00 | 0.00 | 0.00 | 79 | 1018.0 |
| 20260901055901 | 65 | 335 | 1.0 | 1.0 | 0.00 | 0.00 | 0.00 | 82 | 1017.6 |
| 20260901055401 | 63 | 309 | 2.0 | 2.0 | 0.00 | 0.00 | 0.00 | 88 | 1017.6 |
| 20260901054901 | 61 | 320 | 5.0 | 6.0 | 0.00 | 0.00 | 0.00 | 95 | 1017.6 |
| 20260901054401 | 61 | 311 | 3.0 | 4.0 | 0.00 | 0.00 | 0.00 | 99 | 1017.6 |
| 20260901053901 | 61 | 199 | 1.0 | 1.0 | 0.00 | 0.00 | 0.00 | 99 | 1017.3 |
| 20260901053401 | 61 | 323 | 0.0 | 0.0 | 0.00 | 0.00 | 0.00 | 99 | 1017.3 |
| 20260901052901 | 60 | 329 | 0.0 | 0.0 | 0.00 | 0.00 | 0.00 | 99 | 1017.3 |
| 20260901052401 | 59 | 328 | 1.0 | 1.0 | 0.00 | 0.00 | 0.00 | 99 | 1017.3 |
| 20260901051901 | 58 | 326 | 0.0 | 0.0 | 0.00 | 0.00 | 0.00 | 99 | 1017.3 |
| 20260901051401 | 58 | 325 | 0.0 | 0.0 | 0.00 | 0.00 | 0.00 | 99 | 1017.3 |
| 20260901050901 | 58 | 325 | 0.0 | 1.0 | 0.00 | 0.00 | 0.00 | 99 | 1017.3 |
| 20260901050401 | 57 | 325 | 0.0 | 0.0 | 0.00 | 0.00 | 0.00 | 99 | 1017.3 |
| 20260901045901 | 56 | 326 | 0.0 | 0.0 | 0.00 | 0.00 | 0.00 | 99 | 1017.3 |
| 20260901045401 | 56 | 326 | 0.0 | 0.0 | 0.00 | 0.00 | 0.00 | 99 | 1017.3 |
| 20260901044901 | 54 | 325 | 0.0 | 0.0 | 0.00 | 0.00 | 0.00 | 99 | 1017.3 |
| 20260901044401 | 53 | 332 | 0.0 | 0.0 | 0.00 | 0.00 | 0.00 | 99 | 1017.3 |
| 20260901043901 | 53 | 332 | 0.0 | 0.0 | 0.00 | 0.00 | 0.00 | 99 | 1017.3 |
| 20260901043401 | 53 | 332 | 0.0 | 0.0 | 0.00 | 0.00 | 0.00 | 99 | 1017.3 |
| 20260901042901 | 53 | 332 | 0.0 | 0.0 | 0.00 | 0.00 | 0.00 | 99 | 1017.3 |
| 20260901042401 | 53 | 332 | 0.0 | 0.0 | 0.00 | 0.00 | 0.00 | 99 | 1017.3 |
| 20260901041901 | 53 | 332 | 0.0 | 0.0 | 0.00 | 0.00 | 0.00 | 99 | 1017.3 |
| 20260901041401 | 52 | 332 | 0.0 | 0.0 | 0.00 | 0.00 | 0.00 | 99 | 1017.3 |
| 20260901040901 | 53 | 331 | 0.0 | 0.0 | 0.00 | 0.00 | 0.00 | 99 | 1017.3 |
| 20260901040401 | 53 | 331 | 0.0 | 0.0 | 0.00 | 0.00 | 0.00 | 99 | 1017.3 |
| 20260901035901 | 53 | 332 | 0.0 | 0.0 | 0.00 | 0.00 | 0.00 | 99 | 1017.3 |
| 20260901035401 | 53 | 332 | 1.0 | 1.0 | 0.00 | 0.00 | 0.00 | 99 | 1017.3 |
| 20260901034901 | 53 | 331 | 0.0 | 0.0 | 0.00 | 0.00 | 0.00 | 99 | 1017.3 |
| 20260901034401 | 53 | 337 | 0.0 | 0.0 | 0.00 | 0.00 | 0.00 | 99 | 1017.3 |
| 20260901033901 | 53 | 337 | 1.0 | 1.0 | 0.00 | 0.00 | 0.00 | 99 | 1017.3 |
| 20260901033401 | 53 | 334 | 0.0 | 0.0 | 0.00 | 0.00 | 0.00 | 99 | 1017.3 |
| 20260901032901 | 53 | 336 | 0.0 | 0.0 | 0.00 | 0.00 | 0.00 | 99 | 1017.3 |
| 20260901032401 | 53 | 340 | 0.0 | 1.0 | 0.00 | 0.00 | 0.00 | 99 | 1017.3 |
| 20260901031901 | 53 | 328 | 0.0 | 0.0 | 0.00 | 0.00 | 0.00 | 99 | 1017.3 |
| 20260901031401 | 53 | 328 | 0.0 | 0.0 | 0.00 | 0.00 | 0.00 | 99 | 1017.3 |
| 20260901030901 | 53 | 328 | 0.0 | 0.0 | 0.00 | 0.00 | 0.00 | 99 | 1017.3 |
| 20260901030401 | 54 | 334 | 0.0 | 0.0 | 0.00 | 0.00 | 0.00 | 99 | 1017.3 |
| 20260901025901 | 54 | 333 | 0.0 | 0.0 | 0.00 | 0.00 | 0.00 | 99 | 1017.3 |
| 20260901025401 | 54 | 329 | 0.0 | 0.0 | 0.00 | 0.00 | 0.00 | 99 | 1017.3 |
| 20260901024901 | 54 | 329 | 0.0 | 0.0 | 0.00 | 0.00 | 0.00 | 99 | 1017.3 |
| 20260901024401 | 55 | 329 | 0.0 | 0.0 | 0.00 | 0.00 | 0.00 | 99 | 1017.3 |
| 20260901023901 | 55 | 329 | 0.0 | 0.0 | 0.00 | 0.00 | 0.00 | 99 | 1016.9 |
| 20260901023401 | 55 | 329 | 0.0 | 0.0 | 0.00 | 0.00 | 0.00 | 99 | 1016.9 |
| 20260901022901 | 55 | 325 | 0.0 | 0.0 | 0.00 | 0.00 | 0.00 | 99 | 1016.9 |
| 20260901022401 | 56 | 325 | 0.0 | 0.0 | 0.00 | 0.00 | 0.00 | 99 | 1016.9 |
| 20260901021901 | 56 | 342 | 0.0 | 0.0 | 0.00 | 0.00 | 0.00 | 99 | 1016.9 |
| 20260901021401 | 56 | 340 | 0.0 | 0.0 | 0.00 | 0.00 | 0.00 | 99 | 1016.6 |
| 20260901020901 | 56 | 336 | 0.0 | 0.0 | 0.00 | 0.00 | 0.00 | 99 | 1016.6 |
| 20260901020401 | 57 | 336 | 0.0 | 0.0 | 0.00 | 0.00 | 0.00 | 99 | 1016.6 |
| 20260901015901 | 57 | 334 | 0.0 | 0.0 | 0.00 | 0.00 | 0.00 | 99 | 1016.9 |
| 20260901015401 | 57 | 333 | 0.0 | 0.0 | 0.00 | 0.00 | 0.00 | 99 | 1016.9 |
| 20260901014901 | 58 | 334 | 0.0 | 0.0 | 0.00 | 0.00 | 0.00 | 99 | 1016.9 |
| 20260901014401 | 58 | 334 | 1.0 | 1.0 | 0.00 | 0.00 | 0.00 | 99 | 1016.9 |
| 20260901013901 | 58 | 316 | 0.0 | 1.0 | 0.00 | 0.00 | 0.00 | 99 | 1016.9 |
| 20260901013401 | 58 | 329 | 0.0 | 0.0 | 0.00 | 0.00 | 0.00 | 99 | 1016.9 |
| 20260901012901 | 58 | 334 | 0.0 | 0.0 | 0.00 | 0.00 | 0.00 | 99 | 1016.9 |
| 20260901012401 | 58 | 330 | 0.0 | 0.0 | 0.00 | 0.00 | 0.00 | 99 | 1016.9 |
| 20260901011901 | 58 | 327 | 0.0 | 0.0 | 0.00 | 0.00 | 0.00 | 99 | 1016.9 |
| 20260901011401 | 58 | 329 | 1.0 | 1.0 | 0.00 | 0.00 | 0.00 | 99 | 1016.9 |
| 20260901010901 | 58 | 322 | 0.0 | 0.0 | 0.00 | 0.00 | 0.00 | 99 | 1016.9 |
| 20260901010401 | 58 | 322 | 0.0 | 0.0 | 0.00 | 0.00 | 0.00 | 99 | 1016.9 |
| 20260901005901 | 58 | 327 | 0.0 | 0.0 | 0.00 | 0.00 | 0.00 | 99 | 1016.9 |
| 20260901005401 | 58 | 325 | 0.0 | 0.0 | 0.00 | 0.00 | 0.00 | 99 | 1016.9 |
| 20260901004901 | 58 | 322 | 0.0 | 0.0 | 0.00 | 0.00 | 0.00 | 99 | 1016.9 |
| 20260901004401 | 57 | 330 | 0.0 | 0.0 | 0.00 | 0.00 | 0.00 | 99 | 1016.9 |
| 20260901003901 | 57 | 330 | 0.0 | 0.0 | 0.00 | 0.00 | 0.00 | 99 | 1016.9 |
| 20260901003401 | 57 | 333 | 0.0 | 0.0 | 0.00 | 0.00 | 0.00 | 99 | 1016.9 |
| 20260901002901 | 57 | 333 | 0.0 | 0.0 | 0.00 | 0.00 | 0.00 | 99 | 1016.9 |
| 20260901002401 | 57 | 333 | 0.0 | 0.0 | 0.00 | 0.00 | 0.00 | 99 | 1016.9 |
| 20260901001901 | 57 | 331 | 0.0 | 0.0 | 0.00 | 0.00 | 0.00 | 99 | 1016.9 |
| 20260901001401 | 57 | 330 | 0.0 | 0.0 | 0.00 | 0.00 | 0.00 | 99 | 1017.3 |
| 20260901000901 | 57 | 331 | 0.0 | 0.0 | 0.00 | 0.00 | 0.00 | 99 | 1017.3 |
| 20260901000401 | 57 | 330 | 0.0 | 0.0 | 0.00 | 0.00 | 0.00 | 99 | 1017.3 |
| 20260831235901 | 57 | 331 | 0.0 | 0.0 | 0.00 | 0.00 | 0.00 | 99 | 1016.9 |
| 20260831235401 | 57 | 330 | 0.0 | 0.0 | 0.00 | 0.00 | 0.00 | 99 | 1016.9 |
| 20260831234901 | 57 | 331 | 0.0 | 0.0 | 0.00 | 0.00 | 0.00 | 99 | 1017.3 |
| 20260831234401 | 57 | 330 | 0.0 | 0.0 | 0.00 | 0.00 | 0.00 | 99 | 1017.3 |
| 20260831233901 | 58 | 330 | 0.0 | 0.0 | 0.00 | 0.00 | 0.00 | 99 | 1017.3 |
| 20260831233401 | 57 | 330 | 0.0 | 0.0 | 0.00 | 0.00 | 0.00 | 99 | 1017.3 |
| 20260831232901 | 58 | 330 | 0.0 | 0.0 | 0.00 | 0.00 | 0.00 | 99 | 1017.3 |
| 20260831232401 | 57 | 330 | 0.0 | 0.0 | 0.00 | 0.00 | 0.00 | 99 | 1017.3 |
| 20260831231901 | 57 | 330 | 0.0 | 0.0 | 0.00 | 0.00 | 0.00 | 99 | 1017.3 |
| 20260831231401 | 58 | 330 | 0.0 | 0.0 | 0.00 | 0.00 | 0.00 | 99 | 1017.3 |
| 20260831230901 | 58 | 331 | 0.0 | 0.0 | 0.00 | 0.00 | 0.00 | 99 | 1017.3 |
| 20260831230401 | 58 | 327 | 0.0 | 0.0 | 0.00 | 0.00 | 0.00 | 99 | 1017.3 |
| 20260831225901 | 58 | 322 | 0.0 | 0.0 | 0.00 | 0.00 | 0.00 | 99 | 1017.3 |
| 20260831225401 | 57 | 332 | 0.0 | 0.0 | 0.00 | 0.00 | 0.00 | 99 | 1017.3 |
| 20260831224901 | 58 | 332 | 0.0 | 0.0 | 0.00 | 0.00 | 0.00 | 99 | 1017.3 |
| 20260831224401 | 58 | 332 | 0.0 | 0.0 | 0.00 | 0.00 | 0.00 | 99 | 1017.3 |
| 20260831223901 | 58 | 332 | 0.0 | 0.0 | 0.00 | 0.00 | 0.00 | 99 | 1017.3 |
| 20260831223401 | 58 | 332 | 0.0 | 0.0 | 0.00 | 0.00 | 0.00 | 99 | 1017.3 |
| 20260831222901 | 58 | 332 | 0.0 | 0.0 | 0.00 | 0.00 | 0.00 | 99 | 1017.3 |
| 20260831222401 | 58 | 333 | 0.0 | 0.0 | 0.00 | 0.00 | 0.00 | 99 | 1017.3 |
| 20260831221901 | 58 | 333 | 0.0 | 0.0 | 0.00 | 0.00 | 0.00 | 99 | 1017.3 |
| 20260831221401 | 58 | 330 | 0.0 | 0.0 | 0.00 | 0.00 | 0.00 | 99 | 1017.3 |
| 20260831220901 | 58 | 330 | 0.0 | 0.0 | 0.00 | 0.00 | 0.00 | 99 | 1017.3 |
| 20260831220401 | 58 | 330 | 0.0 | 0.0 | 0.00 | 0.00 | 0.00 | 99 | 1017.3 |
| 20260831215901 | 58 | 335 | 0.0 | 0.0 | 0.00 | 0.00 | 0.00 | 99 | 1017.3 |
| 20260831215401 | 58 | 336 | 0.0 | 0.0 | 0.00 | 0.00 | 0.00 | 99 | 1017.3 |
| 20260831214901 | 58 | 340 | 1.0 | 1.0 | 0.00 | 0.00 | 0.00 | 99 | 1016.9 |
| 20260831214401 | 58 | 315 | 2.0 | 2.0 | 0.00 | 0.00 | 0.00 | 99 | 1016.9 |
| 20260831213901 | 58 | 312 | 0.0 | 1.0 | 0.00 | 0.00 | 0.00 | 99 | 1016.9 |
| 20260831213401 | 58 | 341 | 0.0 | 0.0 | 0.00 | 0.00 | 0.00 | 99 | 1017.3 |
| 20260831212901 | 58 | 339 | 0.0 | 0.0 | 0.00 | 0.00 | 0.00 | 99 | 1017.3 |
| 20260831212401 | 58 | 329 | 0.0 | 0.0 | 0.00 | 0.00 | 0.00 | 99 | 1017.3 |
| 20260831211901 | 58 | 329 | 0.0 | 0.0 | 0.00 | 0.00 | 0.00 | 99 | 1017.3 |
| 20260831211401 | 59 | 329 | 0.0 | 0.0 | 0.00 | 0.00 | 0.00 | 99 | 1016.9 |
| 20260831210901 | 59 | 324 | 0.0 | 0.0 | 0.00 | 0.00 | 0.00 | 99 | 1016.9 |
| 20260831210401 | 59 | 323 | 0.0 | 0.0 | 0.00 | 0.00 | 0.00 | 99 | 1016.9 |
| 20260831205901 | 60 | 322 | 0.0 | 1.0 | 0.00 | 0.00 | 0.00 | 99 | 1016.9 |
| 20260831205401 | 60 | 325 | 0.0 | 0.0 | 0.00 | 0.00 | 0.00 | 99 | 1016.9 |
| 20260831204901 | 60 | 328 | 0.0 | 0.0 | 0.00 | 0.00 | 0.00 | 99 | 1016.9 |
| 20260831204401 | 60 | 334 | 0.0 | 0.0 | 0.00 | 0.00 | 0.00 | 99 | 1016.9 |
| 20260831203901 | 60 | 333 | 0.0 | 0.0 | 0.00 | 0.00 | 0.00 | 99 | 1016.9 |
| 20260831203401 | 60 | 333 | 0.0 | 0.0 | 0.00 | 0.00 | 0.00 | 99 | 1016.9 |
| 20260831202901 | 60 | 334 | 0.0 | 0.0 | 0.00 | 0.00 | 0.00 | 99 | 1016.9 |
| 20260831202401 | 60 | 325 | 0.0 | 0.0 | 0.00 | 0.00 | 0.00 | 99 | 1016.6 |
| 20260831201901 | 60 | 330 | 0.0 | 0.0 | 0.00 | 0.00 | 0.00 | 99 | 1016.6 |
| 20260831201401 | 60 | 330 | 0.0 | 0.0 | 0.00 | 0.00 | 0.00 | 99 | 1016.6 |
| 20260831200901 | 60 | 330 | 0.0 | 0.0 | 0.00 | 0.00 | 0.00 | 99 | 1016.6 |
| 20260831200401 | 60 | 330 | 0.0 | 0.0 | 0.00 | 0.00 | 0.00 | 99 | 1016.6 |
| 20260831195901 | 60 | 332 | 0.0 | 0.0 | 0.00 | 0.00 | 0.00 | 99 | 1016.6 |
| 20260831195401 | 60 | 330 | 0.0 | 0.0 | 0.00 | 0.00 | 0.00 | 99 | 1016.6 |
| 20260831194901 | 61 | 344 | 1.0 | 1.0 | 0.00 | 0.00 | 0.00 | 99 | 1016.6 |
| 20260831194401 | 61 | 333 | 0.0 | 0.0 | 0.00 | 0.00 | 0.00 | 98 | 1016.6 |
| 20260831193901 | 61 | 323 | 1.0 | 1.0 | 0.00 | 0.00 | 0.00 | 98 | 1016.6 |
| 20260831193401 | 61 | 334 | 0.0 | 0.0 | 0.00 | 0.00 | 0.00 | 97 | 1016.6 |
| 20260831192901 | 62 | 332 | 0.0 | 0.0 | 0.00 | 0.00 | 0.00 | 97 | 1016.6 |
| 20260831192401 | 62 | 332 | 0.0 | 0.0 | 0.00 | 0.00 | 0.00 | 97 | 1016.6 |
| 20260831191901 | 62 | 332 | 0.0 | 0.0 | 0.00 | 0.00 | 0.00 | 95 | 1016.6 |
| 20260831191401 | 63 | 332 | 0.0 | 0.0 | 0.00 | 0.00 | 0.00 | 95 | 1016.6 |
| 20260831190901 | 64 | 332 | 0.0 | 0.0 | 0.00 | 0.00 | 0.00 | 94 | 1016.6 |
| 20260831190401 | 64 | 328 | 0.0 | 1.0 | 0.00 | 0.00 | 0.00 | 93 | 1016.6 |
| 20260831185901 | 65 | 327 | 1.0 | 1.0 | 0.00 | 0.00 | 0.00 | 91 | 1016.6 |
| 20260831185401 | 65 | 345 | 0.0 | 0.0 | 0.00 | 0.00 | 0.00 | 88 | 1016.6 |
| 20260831184901 | 67 | 352 | 1.0 | 1.0 | 0.00 | 0.00 | 0.00 | 84 | 1016.3 |
| 20260831184401 | 68 | 327 | 2.0 | 2.0 | 0.00 | 0.00 | 0.00 | 79 | 1016.3 |
| 20260831183901 | 66 | 307 | 2.0 | 3.0 | 0.00 | 0.00 | 0.00 | 86 | 1016.3 |
| 20260831183401 | 65 | 319 | 0.0 | 0.0 | 0.00 | 0.00 | 0.00 | 93 | 1016.3 |
| 20260831182901 | 65 | 316 | 0.0 | 1.0 | 0.00 | 0.00 | 0.00 | 95 | 1016.3 |
| 20260831182401 | 66 | 323 | 0.0 | 1.0 | 0.00 | 0.00 | 0.00 | 94 | 1015.9 |
| 20260831181901 | 66 | 335 | 0.0 | 0.0 | 0.00 | 0.00 | 0.00 | 94 | 1015.9 |
| 20260831181401 | 67 | 336 | 0.0 | 0.0 | 0.00 | 0.00 | 0.00 | 93 | 1015.9 |
| 20260831180901 | 67 | 332 | 0.0 | 0.0 | 0.00 | 0.00 | 0.00 | 92 | 1015.9 |
| 20260831180401 | 68 | 333 | 0.0 | 0.0 | 0.00 | 0.00 | 0.00 | 88 | 1015.9 |
| 20260831175901 | 68 | 330 | 0.0 | 0.0 | 0.00 | 0.00 | 0.00 | 87 | 1015.2 |
| 20260831175401 | 69 | 323 | 1.0 | 1.0 | 0.00 | 0.00 | 0.00 | 86 | 1015.2 |
| 20260831174901 | 70 | 323 | 0.0 | 0.0 | 0.00 | 0.00 | 0.00 | 83 | 1015.2 |
| 20260831174401 | 70 | 324 | 0.0 | 0.0 | 0.00 | 0.00 | 0.00 | 80 | 1015.2 |
| 20260831173901 | 71 | 314 | 0.0 | 0.0 | 0.00 | 0.00 | 0.00 | 80 | 1015.2 |
| 20260831173401 | 71 | 324 | 0.0 | 0.0 | 0.00 | 0.00 | 0.00 | 77 | 1015.2 |
| 20260831172901 | 72 | 338 | 0.0 | 0.0 | 0.00 | 0.00 | 0.00 | 75 | 1015.2 |
| 20260831172401 | 73 | 307 | 0.0 | 1.0 | 0.00 | 0.00 | 0.00 | 72 | 1015.2 |
| 20260831171901 | 73 | 337 | 4.0 | 5.0 | 0.00 | 0.00 | 0.00 | 69 | 1015.2 |
| 20260831171401 | 73 | 309 | 4.0 | 5.0 | 0.00 | 0.00 | 0.00 | 73 | 1015.2 |
| 20260831170901 | 71 | 325 | 0.0 | 0.0 | 0.00 | 0.00 | 0.00 | 86 | 1015.2 |
| 20260831170401 | 72 | 323 | 0.0 | 0.0 | 0.00 | 0.00 | 0.00 | 82 | 1015.2 |
| 20260831165901 | 72 | 317 | 1.0 | 1.0 | 0.00 | 0.00 | 0.00 | 84 | 1015.2 |
| 20260831165401 | 73 | 325 | 0.0 | 1.0 | 0.00 | 0.00 | 0.00 | 81 | 1015.2 |
| 20260831164901 | 73 | 321 | 0.0 | 0.0 | 0.00 | 0.00 | 0.00 | 77 | 1014.9 |
| 20260831164401 | 73 | 288 | 4.0 | 6.0 | 0.00 | 0.00 | 0.00 | 73 | 1014.9 |
| 20260831163901 | 73 | 320 | 0.0 | 0.0 | 0.00 | 0.00 | 0.00 | 78 | 1014.9 |
| 20260831163401 | 73 | 331 | 3.0 | 4.0 | 0.00 | 0.00 | 0.00 | 76 | 1014.9 |
| 20260831162901 | 74 | 336 | 0.0 | 0.0 | 0.00 | 0.00 | 0.00 | 80 | 1014.9 |
| 20260831162401 | 74 | 326 | 0.0 | 0.0 | 0.00 | 0.00 | 0.00 | 80 | 1015.2 |
| 20260831161901 | 74 | 325 | 0.0 | 0.0 | 0.00 | 0.00 | 0.00 | 80 | 1015.2 |
| 20260831161401 | 74 | 323 | 0.0 | 0.0 | 0.00 | 0.00 | 0.00 | 78 | 1015.2 |
| 20260831160901 | 74 | 295 | 0.0 | 1.0 | 0.00 | 0.00 | 0.00 | 76 | 1015.2 |
| 20260831160401 | 74 | 330 | 1.0 | 2.0 | 0.00 | 0.00 | 0.00 | 74 | 1015.2 |
| 20260831155901 | 75 | 321 | 0.0 | 0.0 | 0.00 | 0.00 | 0.00 | 74 | 1014.9 |
| 20260831155401 | 74 | 319 | 1.0 | 1.0 | 0.00 | 0.00 | 0.00 | 74 | 1014.9 |
| 20260831154901 | 76 | 324 | 0.0 | 0.0 | 0.00 | 0.00 | 0.00 | 73 | 1014.9 |
| 20260831154401 | 76 | 345 | 4.0 | 4.0 | 0.00 | 0.00 | 0.00 | 68 | 1014.9 |
| 20260831153901 | 77 | 335 | 1.0 | 3.0 | 0.00 | 0.00 | 0.00 | 69 | 1014.9 |
| 20260831153401 | 77 | 314 | 1.0 | 1.0 | 0.00 | 0.00 | 0.00 | 68 | 1014.9 |
| 20260831152901 | 76 | 298 | 1.0 | 1.0 | 0.00 | 0.00 | 0.00 | 69 | 1014.9 |
| 20260831152401 | 76 | 280 | 2.0 | 3.0 | 0.00 | 0.00 | 0.00 | 68 | 1015.2 |
| 20260831151901 | 76 | 312 | 1.0 | 1.0 | 0.00 | 0.00 | 0.00 | 69 | 1015.2 |
| 20260831151401 | 76 | 308 | 1.0 | 1.0 | 0.00 | 0.00 | 0.00 | 71 | 1015.2 |
| 20260831150901 | 76 | 304 | 1.0 | 2.0 | 0.00 | 0.00 | 0.00 | 71 | 1015.2 |
| 20260831150401 | 76 | 306 | 1.0 | 1.0 | 0.00 | 0.00 | 0.00 | 67 | 1015.2 |
| 20260831145901 | 76 | 330 | 0.0 | 0.0 | 0.00 | 0.00 | 0.00 | 66 | 1015.2 |
| 20260831145401 | 76 | 316 | 0.0 | 1.0 | 0.00 | 0.00 | 0.00 | 67 | 1015.2 |
| 20260831144901 | 76 | 341 | 1.0 | 1.0 | 0.00 | 0.00 | 0.00 | 68 | 1015.2 |
| 20260831144401 | 76 | 326 | 4.0 | 5.0 | 0.00 | 0.00 | 0.00 | 67 | 1015.2 |
| 20260831143901 | 76 | 334 | 3.0 | 4.0 | 0.00 | 0.00 | 0.00 | 68 | 1015.2 |
| 20260831143401 | 76 | 17 | 3.0 | 3.0 | 0.00 | 0.00 | 0.00 | 67 | 1015.2 |
| 20260831142901 | 77 | 0 | 3.0 | 4.0 | 0.00 | 0.00 | 0.00 | 65 | 1015.2 |
| 20260831142401 | 77 | 324 | 3.0 | 3.0 | 0.00 | 0.00 | 0.00 | 65 | 1015.2 |
| 20260831141901 | 77 | 288 | 4.0 | 6.0 | 0.00 | 0.00 | 0.00 | 65 | 1015.2 |
| 20260831141401 | 77 | 341 | 10.0 | 13.0 | 0.00 | 0.00 | 0.00 | 64 | 1015.2 |
| 20260831140901 | 79 | 304 | 6.0 | 6.0 | 0.00 | 0.00 | 0.00 | 64 | 1015.2 |
| 20260831140401 | 78 | 18 | 3.0 | 4.0 | 0.00 | 0.00 | 0.00 | 65 | 1015.2 |
| 20260831135901 | 77 | 324 | 9.0 | 13.0 | 0.00 | 0.00 | 0.00 | 64 | 1015.2 |
| 20260831135401 | 78 | 315 | 2.0 | 4.0 | 0.00 | 0.00 | 0.00 | 63 | 1015.2 |
| 20260831134901 | 78 | 310 | 4.0 | 6.0 | 0.00 | 0.00 | 0.00 | 65 | 1015.2 |